This is the latest recevied weather packets stored in our database for station/object N5PA. If no packets are shown the sender has not sent any weather packets the latest 10 day(s).
| Time | Temp. | Humidity | Pressure | Rain* | Wind** | Luminosity | Snow |
|---|---|---|---|---|---|---|---|
| 1777720207 | 11.67° C | 39% | 1014.4 hPa | 0 mm | - | 1034 W/m² | - |
| 1777719907 | 11.67° C | 39% | 1014.2 hPa | 0 mm | - | 1034 W/m² | - |
| 1777719607 | 11.67° C | 39% | 1014.2 hPa | 0 mm | - | 1034 W/m² | - |
| 1777719307 | 11.67° C | 39% | 1014 hPa | 0 mm | - | 1034 W/m² | - |
| 1777719007 | 11.67° C | 39% | 1014 hPa | 0 mm | - | 1034 W/m² | - |
| 1777718707 | 11.67° C | 39% | 1013.9 hPa | 0 mm | - | 1032 W/m² | - |
| 1777718407 | 11.67° C | 39% | 1013.8 hPa | 0 mm | - | 1034 W/m² | - |
| 1777718106 | 11.67° C | 39% | 1013.8 hPa | 0 mm | - | 1034 W/m² | - |
| 1777717807 | 11.67° C | 39% | 1013.8 hPa | 0.25 mm | - | 1034 W/m² | - |
| 1777717507 | 11.67° C | 39% | 1013.8 hPa | 0.51 mm | - | 1034 W/m² | - |
| 1777717208 | 11.67° C | 40% | 1013.8 hPa | 1.02 mm | - | 1034 W/m² | - |
| 1777716906 | 11.67° C | 40% | 1013.8 hPa | 1.52 mm | - | 1034 W/m² | - |
| 1777716606 | 11.67° C | 40% | 1013.8 hPa | 1.52 mm | - | 1034 W/m² | - |
| 1777716307 | 11.67° C | 40% | 1013.4 hPa | 1.52 mm | - | 1034 W/m² | - |
| 1777716007 | 11.67° C | 40% | 1013.5 hPa | 1.52 mm | - | 1034 W/m² | - |
| 1777715707 | 11.67° C | 40% | 1013.8 hPa | 1.52 mm | - | 1034 W/m² | - |
| 1777715406 | 11.67° C | 40% | 1013.6 hPa | 1.52 mm | - | 1034 W/m² | - |
| 1777715106 | 11.67° C | 40% | 1013.6 hPa | 1.52 mm | - | 1034 W/m² | - |
| 1777714807 | 11.67° C | 40% | 1013.5 hPa | 1.78 mm | - | 1034 W/m² | - |
| 1777714506 | 11.67° C | 41% | 1013.5 hPa | 1.52 mm | - | 1034 W/m² | - |
| 1777714207 | 11.67° C | 41% | 1013.4 hPa | 1.27 mm | - | 1034 W/m² | - |
| 1777713906 | 11.67° C | 41% | 1014 hPa | 1.27 mm | - | 1034 W/m² | - |
| 1777713606 | 11.67° C | 41% | 1013.9 hPa | 0.76 mm | - | 1034 W/m² | - |
| 1777713308 | 11.67° C | 41% | 1014.7 hPa | 0.25 mm | - | 1034 W/m² | - |
| 1777713007 | 11.67° C | 41% | 1014.7 hPa | 0.25 mm | - | 1034 W/m² | - |
* Rain latest hour (hover to see other rain measurements)
** Current wind speed in m/s (hover to see current wind gust speed)